Aérodrome :
LOGIN :

S'inscrire | Disclaimer

   EN    FR    IT 

 










Légende :    VFR   VFR Marginal   IFR   IFR Intensif   IFR Très Intensif
Visi : 
Plafond : 
>= 8 km
>= 3000ft
5 à 8 km
1000 à 3000 ft
1500m à 5 km
500 à 1000 ft
800 à 1500m
200 à 500 ft
< 800m
< 200 ft
Symboles :   Orages  Brouillard  Fortes neiges  Fortes précipitations  Vent > 20 kt
SIGMETs :   Divers  Orages  Givrage  Turbulence  Onde Orograph.  Cendres Volcan.







- Altitude de l'aérodrome : 768 ft
- Code IATA : MXP


LIMC - Milano Malpensa

DERNIER METAR :
  • 171450Z VRB04KT 9999 SCT050 33/16 Q1018 NOSIG

METARs EXPIRÉS :
  • 171420Z 29007KT 240V320 9999 SCT050 33/16 Q1018 NOSIG
  • 171350Z VRB04KT 9999 SCT050 32/16 Q1018 NOSIG
  • 171320Z 11004KT 050V180 9999 SCT050 32/16 Q1019 NOSIG
  • 171250Z 15006KT 070V200 9999 SCT050 33/16 Q1019 NOSIG
  • 171220Z VRB04KT 9999 SCT050 31/16 Q1019 NOSIG

TAF TAF LIMC
Valide du 17 à 12h jusqu'au 18 à 18h UTC


171100Z 1712/1818 VRB05KT CAVOK
Pas de NOTAMs connus pour ce terrain.



MET'MAP, la Météo Aéronautique d'un coup d'oeil ! - Copyright ORBIFLY Décembre 2007 - Disclaimer

ORBIFLY MET'MAP TEAM :

Programmation & Développement : Alexandra Zaïnal
Conception & Développement : Baudouin d'Aumeries
Co-Programmation & Développement : Marc-Olivier Méhu
Soutien technique & logistique : Manuel Goepfert

Contact : metmap@orbifly.com




SOURCES & CREDITS :

   NOAA